Regional Weather Roundup
Issued by NWS Northern Indiana

Home | Current Version | Previous Version | Graphics & Text | Print | Product List | Glossary On
Versions: 1 2 3 4 5 6 7 8 9 10 11 12 13 14 15 16 17 18 19 20 21 22 23 24 25 26 27 28 29 30 31 32 33 34 35 36 37 38 39 40 41 42 43 44 45 46 47 48 49 50
000
ASUS43 KIWX 030500
RWRIWX

KIWX WEATHER ROUNDUP
NATIONAL WEATHER SERVICE NORTHERN INDIANA
1200 AM EST SAT DEC 03 2016

NOTE: "FAIR" INDICATES FEW OR NO CLOUDS BELOW 12,000 FEET WITH NO
SIGNIFICANT WEATHER AND/OR OBSTRUCTIONS TO VISIBILITY.

* THESE STATIONS ARE NOT UNDER NWS QUALITY CONTROL. THEY ALSO MAY NOT
  REPORT WEATHER SUCH AS PRECIPITATION OR FOG.

INZ001>027-030600-
NORTHERN INDIANA

CITY           SKY/WX    TMP DP  RH WIND       PRES   REMARKS
SOUTH BEND     CLOUDY    35  27  72 W5        30.30  WCI  31
GOSHEN         CLOUDY    36  26  67 W14       30.29R
MONTICELLO*    CLOUDY    36  30  79 W5        30.31S
ANGOLA*        CLOUDY    36  28  75 W3        30.26S
FORT WAYNE     CLOUDY    36  30  79 W7        30.30
PERU/GRISSOM   CLOUDY    36  35  97 W3        30.29R

$$
INZ028>050-030600-
CENTRAL INDIANA

CITY           SKY/WX    TMP DP  RH WIND       PRES   REMARKS
LAFAYETTE      CLOUDY    36  33  89 NW5       30.32
KOKOMO*        CLOUDY    36  33  89 W6        30.31S
MUNCIE*        CLOUDY    38  32  79 W7        30.30R
INDIANAPOLIS   CLOUDY    37  34  89 W6        30.32R

$$
MIZ043>046-050>051-056>058-064>065-071>073-077>080-030600-
SOUTHWEST LOWER MICHIGAN

CITY           SKY/WX    TMP DP  RH WIND       PRES   REMARKS
BATTLE CREEK   CLOUDY    35  30  82 NW5       30.27R WCI  31
BENTON HARBOR  CLOUDY    38  27  64 W10       30.29R
COLDWATER*     CLOUDY    36  28  73 W3        30.27R
HILLSDALE*     CLOUDY    34  28  80 NW5       30.24R WCI  30
HOLLAND        CLOUDY    38  29  70 NW6       30.28R
GRAND RAPIDS   CLOUDY    36  27  69 NW8       30.28R
KALAMAZOO      CLOUDY    36  28  73 CALM      30.27S
STURGIS*       CLOUDY    36  27  71 CALM      30.26S
THREE RIVERS*  CLOUDY    37  29  74 W6        30.28R

$$
OHZ001>008-015>018-024>025-030600-
NORTHWEST OHIO

CITY           SKY/WX    TMP DP  RH WIND       PRES   REMARKS
DEFIANCE       CLOUDY    33  26  75 SW5       30.28S WCI  29
FINDLAY        CLEAR     30  24  78 W5        30.26S WCI  25
TOLEDO EXPRESS CLOUDY    36  29  75 W8        30.26S
TOLEDO METCALF CLOUDY    38  30  73 NW8       30.27S
LIMA           CLOUDY    35  29  78 W6        30.27S WCI  30

$$
AND FOR LAKE MICHIGAN COASTAL AND OPEN LAKE BUOY OBSERVATIONS

STATION/POSITION TEMP    WIND        PRES    VSBY  WAVE
                 AIR SEA DIR/SP/G                  HT/PER
                 (F)     (DEG/KT/KT) (MB)    (MI)  (FT/S)
CALUMET HARBOR    36     250/  6/  9 1026.0R
MICHIGAN CITY     38     260/  5/  6   N/A
BURNS HARBOR      39     250/ 12/ 18 1026.4S
SAINT JOSEPH      39     260/  9/ 15 1025.7R
SOUTH LAKE BUOY   37 49  300/ 10/ 14 1025.9          2/ 5

$$
&&




USA.gov is the U.S. government's official web portal to all federal, state and local government web resources and services.